Find Starlink 31539

NORAD ID: 59539 Int'l Des: 2024-074 Owner: SPXS Country: US Constellation: starlink operational
LEOCIRCULAR

Current View

Loading 3D Globe...

About Starlink 31539

Starlink 31539 (NORAD 59539) is a starlink constellation satellite (v2 mini) launched Apr 18, 2024 by SPXS of US. It operates in LEO, CIRCULAR orbit with a mass of 730.00 kg.

About Starlink 31539

Description loading...

Upcoming Passes

Passes for default location (London). Set your location on the main map for personalized predictions.

Altitude History

Loading altitude history...

Two-Line Element Set

1 59539U 24074F 26168.92858944 .00001966 00000-0 81009-4 0 9994
2 59539 43.0022 137.5054 0002280 271.6077 88.4513 15.27563924121345
Epoch: Jun 17, 2026 • Age: 16 hours

Current Status

Altitude 485.8 km
Velocity 7.63 km/s
Sub-Earth Point 34.31°N, 142.32°E
Launch Date Apr 18, 2024
Age 2.1 years
Type internet

Technical Details

Classification Payload
Mass 730.00 kg
Dry Mass 700.00 kg
Total Mass 730.00 kg
Length 0.30 m
Diameter 4.10 m
Span 29.00 m
Shape Box + pan
Manufacturer SPXS
Bus Type Starlink V2M
Phase Status In Orbit
Owner/State SPXS/US

Most Searched